When you browse on this site, cookies collect data to enhance your experience and personalize the content and advertising you see.
Visit our Privacy Policy to learn more. By continuing to use the site, you agree to this use of cookies and data.
  • In France
  • List of Countries
  • For 7 days
  • Water Temperature
  • Satellite Maps
  • Weather Map
  • Weather Widgets
  • user-avatar
    Login

    Hourly Weather Kaprun

    Today, 13 December, Thursday

    Time Temperature Precipitation Wind Pressure Humidity
    00:00 -15°C° 0 mm 1 mps 590 mmHg 86%
    01:00 -15°C° 0 mm 1 mps 590 mmHg 86%
    02:00 -15°C° 0 mm 1 mps 590 mmHg 86%
    03:00 -15°C° 0 mm 1 mps 589 mmHg 86%
    04:00 -16°C° 0 mm 1 mps 589 mmHg 86%
    05:00 -16°C° 0 mm 1 mps 589 mmHg 86%
    06:00 -16°C° 0 mm 1 mps 588 mmHg 86%
    07:00 -16°C° 0 mm 1 mps 588 mmHg 86%
    08:00 -15°C° 0 mm 1 mps 589 mmHg 83%
    09:00 -13°C° 0 mm 1 mps 589 mmHg 81%
    10:00 -14°C° 0 mm 2 mps 590 mmHg 78%
    11:00 -13°C° 0 mm 2 mps 590 mmHg 78%
    12:00 -12°C° 0 mm 2 mps 590 mmHg 77%
    13:00 -10°C° 0 mm 2 mps 590 mmHg 76%
    14:00 -12°C° 0 mm 2 mps 590 mmHg 80%
    15:00 -10°C° 0 mm 1 mps 589 mmHg 84%
    16:00 -11°C° 0 mm 1 mps 589 mmHg 88%
    17:00 -12°C° 0 mm 1 mps 589 mmHg 88%
    18:00 -13°C° 0 mm 1 mps 588 mmHg 88%
    19:00 -14°C° 0 mm 1 mps 588 mmHg 88%
    20:00 -14°C° 0 mm 1 mps 588 mmHg 88%
    21:00 -14°C° 0 mm 1 mps 588 mmHg 87%
    22:00 -14°C° 0 mm 1 mps 588 mmHg 86%
    23:00 -14°C° 0 mm 1 mps 588 mmHg 86%

    Tomorrow, 14 December, Friday

    Time Temperature Precipitation Wind Pressure Humidity
    00:00 -14°C° 0 mm 1 mps 588 mmHg 86%
    01:00 -15°C° 0 mm 1 mps 589 mmHg 85%
    02:00 -15°C° 0 mm 1 mps 588 mmHg 85%
    03:00 -15°C° 0 mm 1 mps 588 mmHg 85%
    04:00 -15°C° 0 mm 1 mps 588 mmHg 85%
    05:00 -15°C° 0 mm 1 mps 588 mmHg 84%
    06:00 -15°C° 0 mm 1 mps 589 mmHg 84%
    07:00 -15°C° 0 mm 1 mps 589 mmHg 83%
    08:00 -14°C° 0 mm 1 mps 590 mmHg 81%
    09:00 -12°C° 0 mm 1 mps 590 mmHg 79%
    10:00 -10°C° 0 mm 1 mps 591 mmHg 77%
    11:00 -9°C° 0 mm 1 mps 592 mmHg 74%
    12:00 -8°C° 0 mm 1 mps 592 mmHg 72%
    13:00 -7°C° 0 mm 1 mps 592 mmHg 69%
    14:00 -8°C° 0 mm 1 mps 592 mmHg 75%
    15:00 -10°C° 0 mm 1 mps 591 mmHg 80%
    16:00 -11°C° 0 mm 0 mps 590 mmHg 86%
    17:00 -12°C° 0 mm 1 mps 590 mmHg 85%
    18:00 -13°C° 0 mm 1 mps 590 mmHg 85%
    19:00 -14°C° 0 mm 1 mps 590 mmHg 85%
    20:00 -14°C° 0 mm 1 mps 591 mmHg 82%
    21:00 -14°C° 0 mm 1 mps 591 mmHg 79%
    22:00 -14°C° 0 mm 1 mps 591 mmHg 76%
    23:00 -14°C° 0 mm 1 mps 591 mmHg 73%

    Day after tomorrow, 15 December, Saturday

    Time Temperature Precipitation Wind Pressure Humidity
    00:00 -14°C° 0 mm 1 mps 591 mmHg 70%
    01:00 -14°C° 0 mm 1 mps 591 mmHg 68%
    02:00 -16°C° 0 mm 2 mps 591 mmHg 67%
    03:00 -17°C° 0 mm 2 mps 591 mmHg 66%
    04:00 -17°C° 0 mm 2 mps 591 mmHg 66%
    05:00 -17°C° 0 mm 2 mps 591 mmHg 67%
    06:00 -17°C° 0 mm 2 mps 592 mmHg 68%
    07:00 -17°C° 0 mm 2 mps 592 mmHg 69%
    08:00 -16°C° 0 mm 2 mps 593 mmHg 69%
    09:00 -14°C° 0 mm 2 mps 593 mmHg 69%
    10:00 -11°C° 0 mm 1 mps 594 mmHg 70%
    11:00 -10°C° 0 mm 1 mps 594 mmHg 69%
    12:00 -9°C° 0 mm 1 mps 595 mmHg 68%
    13:00 -7°C° 0 mm 1 mps 595 mmHg 67%
    14:00 -9°C° 0 mm 1 mps 594 mmHg 72%
    15:00 -10°C° 0 mm 1 mps 594 mmHg 78%
    16:00 -11°C° 0 mm 1 mps 593 mmHg 83%
    17:00 -12°C° 0 mm 1 mps 593 mmHg 80%
    18:00 -13°C° 0 mm 1 mps 592 mmHg 78%
    19:00 -14°C° 0 mm 1 mps 592 mmHg 76%
    20:00 -14°C° 0 mm 1 mps 592 mmHg 72%
    21:00 -14°C° 0 mm 1 mps 592 mmHg 68%
    22:00 -14°C° 0 mm 1 mps 592 mmHg 65%
    23:00 -14°C° 0 mm 1 mps 592 mmHg 63%

    16 December, Sunday

    Time Temperature Precipitation Wind Pressure Humidity
    00:00 -14°C° 0 mm 1 mps 592 mmHg 61%
    01:00 -14°C° 0 mm 1 mps 592 mmHg 59%
    02:00 -14°C° 0 mm 1 mps 591 mmHg 58%
    03:00 -13°C° 0 mm 1 mps 591 mmHg 56%
    04:00 -13°C° 0 mm 1 mps 591 mmHg 54%
    05:00 -13°C° 0 mm 1 mps 591 mmHg 54%
    06:00 -12°C° 0 mm 1 mps 591 mmHg 53%
    07:00 -12°C° 0 mm 1 mps 591 mmHg 53%
    08:00 -10°C° 0 mm 1 mps 592 mmHg 54%
    09:00 -8°C° 0 mm 1 mps 592 mmHg 56%
    10:00 -7°C° 0 mm 1 mps 593 mmHg 57%
    11:00 -6°C° 0.1 mm 1 mps 593 mmHg 61%
    12:00 -6°C° 0.1 mm 1 mps 593 mmHg 65%
    13:00 -4°C° 0.1 mm 1 mps 593 mmHg 69%
    14:00 -4°C° 0.1 mm 1 mps 593 mmHg 73%
    15:00 -4°C° 0.1 mm 1 mps 593 mmHg 78%
    16:00 -6°C° 0.1 mm 1 mps 592 mmHg 83%
    17:00 -6°C° 0.2 mm 1 mps 592 mmHg 85%
    18:00 -4°C° 0.2 mm 1 mps 593 mmHg 87%
    19:00 -4°C° 0.2 mm 1 mps 593 mmHg 89%
    20:00 -4°C° 0.7 mm 1 mps 593 mmHg 91%
    21:00 -4°C° 0.7 mm 1 mps 593 mmHg 93%
    22:00 -4°C° 0.7 mm 1 mps 593 mmHg 95%
    23:00 -6°C° 0.4 mm 1 mps 593 mmHg 96%

    17 December, Monday

    Time Temperature Precipitation Wind Pressure Humidity
    00:00 -6°C° 0.4 mm 1 mps 593 mmHg 96%
    01:00 -6°C° 0.4 mm 1 mps 594 mmHg 96%
    02:00 -6°C° 0.1 mm 1 mps 593 mmHg 95%
    03:00 -6°C° 0.1 mm 1 mps 593 mmHg 95%
    04:00 -7°C° 0.1 mm 1 mps 593 mmHg 94%
    05:00 -7°C° 0 mm 1 mps 593 mmHg 93%
    06:00 -8°C° 0 mm 1 mps 593 mmHg 93%
    07:00 -9°C° 0 mm 1 mps 593 mmHg 92%
    08:00 -8°C° 0 mm 1 mps 593 mmHg 91%
    09:00 -7°C° 0 mm 1 mps 594 mmHg 89%
    10:00 -6°C° 0 mm 1 mps 594 mmHg 88%
    11:00 -4°C° 0 mm 1 mps 594 mmHg 86%
    12:00 -3°C° 0 mm 1 mps 595 mmHg 83%
    13:00 -2°C° 0 mm 1 mps 595 mmHg 81%
    14:00 -3°C° 0.1 mm 1 mps 595 mmHg 85%
    15:00 -4°C° 0.1 mm 1 mps 595 mmHg 89%
    16:00 -6°C° 0.1 mm 1 mps 594 mmHg 93%
    17:00 -6°C° 0.1 mm 1 mps 595 mmHg 94%
    18:00 -7°C° 0.1 mm 2 mps 595 mmHg 94%
    19:00 -8°C° 0.1 mm 2 mps 595 mmHg 94%
    20:00 -8°C° 0 mm 2 mps 596 mmHg 94%
    21:00 -9°C° 0 mm 2 mps 596 mmHg 93%
    22:00 -9°C° 0 mm 2 mps 596 mmHg 93%
    23:00 -10°C° 0 mm 2 mps 596 mmHg 92%

    18 December, Tuesday

    Time Temperature Precipitation Wind Pressure Humidity
    00:00 -10°C° 0 mm 2 mps 596 mmHg 92%
    01:00 -12°C° 0 mm 2 mps 595 mmHg 91%
    02:00 -13°C° 0 mm 2 mps 595 mmHg 89%
    03:00 -13°C° 0 mm 2 mps 595 mmHg 87%
    04:00 -14°C° 0 mm 2 mps 595 mmHg 85%
    05:00 -14°C° 0 mm 2 mps 595 mmHg 83%
    06:00 -14°C° 0 mm 2 mps 595 mmHg 82%
    07:00 -12°C° 0 mm 1 mps 595 mmHg 80%
    08:00 -11°C° 0 mm 1 mps 595 mmHg 78%
    09:00 -10°C° 0 mm 1 mps 596 mmHg 76%
    10:00 -8°C° 0 mm 1 mps 596 mmHg 74%
    11:00 -7°C° 0 mm 1 mps 596 mmHg 72%
    12:00 -6°C° 0 mm 1 mps 596 mmHg 71%
    13:00 -3°C° 0 mm 1 mps 596 mmHg 69%
    14:00 -7°C° 0 mm 2 mps 596 mmHg 72%
    15:00 -8°C° 0 mm 2 mps 595 mmHg 76%
    16:00 -9°C° 0 mm 2 mps 594 mmHg 79%
    17:00 -9°C° 0 mm 2 mps 594 mmHg 78%
    18:00 -10°C° 0 mm 2 mps 594 mmHg 77%
    19:00 -10°C° 0 mm 2 mps 593 mmHg 77%
    20:00 -10°C° 0 mm 2 mps 593 mmHg 76%
    21:00 -10°C° 0 mm 2 mps 593 mmHg 76%
    22:00 -10°C° 0 mm 2 mps 593 mmHg 76%
    23:00 -10°C° 0 mm 2 mps 592 mmHg 77%
    Show more